AAL1386 KDCA-KBOS

Flight info

Callsign AAL1386
Flight time 1h 14m
Altitude 37000
Route SOOKI6 SWANN BROSS Q419 JFK ROBUC3
Aircraft B38M/M-SDE1FGHILORVWXY/HB1

Departure

Time 2026-05-06 01:15
Airport Ronald Reagan Washington National Airport (KDCA)

Arrival

Time 2026-05-06 02:29
Airport Boston Logan International Airport (KBOS)
Time Latitude Longitude Altitude Speed Heading
2026-05-06 00:52 38.85481 -77.04106 23 ft 0 kts 219°
2026-05-06 01:05 38.85482 -77.04105 23 ft 2 kts 219°
2026-05-06 01:06 38.85501 -77.04084 26 ft 4 kts 226°
2026-05-06 01:06 38.85519 -77.04057 25 ft 4 kts 239°
2026-05-06 01:06 38.85527 -77.04033 26 ft 0 kts 253°
2026-05-06 01:09 38.85527 -77.04037 26 ft 4 kts 264°
2026-05-06 01:09 38.85544 -77.04054 24 ft 2 kts 355°
2026-05-06 01:09 38.85548 -77.04052 25 ft 0 kts 11°
2026-05-06 01:09 38.85549 -77.04052 25 ft 0 kts 11°
2026-05-06 01:10 38.85556 -77.04050 25 ft 4 kts 12°
2026-05-06 01:11 38.85613 -77.04042 24 ft 11 kts 359°
2026-05-06 01:11 38.85688 -77.04047 24 ft 11 kts 358°
2026-05-06 01:11 38.85705 -77.04048 29 ft 0 kts 357°
2026-05-06 01:12 38.85731 -77.04051 28 ft 9 kts 354°
2026-05-06 01:12 38.85818 -77.04060 28 ft 15 kts 354°
2026-05-06 01:13 38.85921 -77.04041 26 ft 16 kts 46°
2026-05-06 01:13 38.86002 -77.03958 27 ft 0 kts 16°
2026-05-06 01:14 38.86082 -77.03915 24 ft 13 kts 46°
2026-05-06 01:14 38.86039 -77.03861 23 ft 0 kts 176°
2026-05-06 01:15 38.86015 -77.03859 27 ft 12 kts 175°
2026-05-06 01:15 38.85666 -77.03827 25 ft 97 kts 175°
2026-05-06 01:15 38.84720 -77.03730 135 ft 168 kts 176°
2026-05-06 01:15 38.83395 -77.03551 624 ft 208 kts 175°
2026-05-06 01:16 38.81901 -77.03270 1120 ft 216 kts 174°
2026-05-06 01:16 38.80453 -77.02947 1623 ft 207 kts 174°
2026-05-06 01:16 38.79026 -77.02631 2137 ft 213 kts 176°
2026-05-06 01:16 38.77531 -77.02287 2626 ft 224 kts 169°
2026-05-06 01:17 38.76153 -77.01214 3137 ft 244 kts 140°
2026-05-06 01:17 38.75311 -76.99283 3650 ft 263 kts 110°
2026-05-06 01:17 38.75146 -76.96896 4204 ft 273 kts 96°
2026-05-06 01:17 38.75147 -76.94440 4733 ft 279 kts 92°
2026-05-06 01:18 38.75663 -76.92003 5215 ft 291 kts 60°
2026-05-06 01:18 38.77069 -76.90140 5751 ft 293 kts 32°
2026-05-06 01:18 38.78788 -76.88800 6270 ft 294 kts 28°
2026-05-06 01:18 38.80566 -76.87472 6750 ft 296 kts 28°
2026-05-06 01:19 38.82363 -76.86111 7245 ft 302 kts 28°
2026-05-06 01:19 38.84170 -76.84721 7750 ft 301 kts 28°
2026-05-06 01:19 38.85959 -76.83335 8240 ft 302 kts 28°
2026-05-06 01:19 38.87656 -76.81762 8740 ft 304 kts 39°
2026-05-06 01:20 38.89228 -76.79940 9267 ft 305 kts 41°
2026-05-06 01:20 38.90776 -76.78071 9790 ft 306 kts 41°
2026-05-06 01:20 38.92347 -76.76185 10204 ft 316 kts 40°
2026-05-06 01:20 38.94035 -76.74188 10454 ft 342 kts 40°
2026-05-06 01:21 38.95821 -76.72095 11066 ft 352 kts 40°
2026-05-06 01:21 38.97647 -76.69968 11868 ft 356 kts 40°
2026-05-06 01:21 38.99487 -76.67833 12706 ft 359 kts 40°
2026-05-06 01:21 39.01360 -76.65652 13519 ft 364 kts 40°
2026-05-06 01:22 39.03187 -76.63375 14230 ft 369 kts 43°
2026-05-06 01:22 39.05011 -76.61009 14932 ft 374 kts 43°
2026-05-06 01:22 39.06859 -76.58615 15585 ft 379 kts 43°
2026-05-06 01:22 39.08741 -76.56198 16267 ft 385 kts 43°
2026-05-06 01:23 39.10605 -76.53747 16916 ft 391 kts 49°
2026-05-06 01:23 39.11962 -76.50686 17553 ft 397 kts 72°
2026-05-06 01:23 39.12522 -76.47212 18281 ft 396 kts 84°
2026-05-06 01:23 39.12892 -76.43679 18889 ft 400 kts 85°
2026-05-06 01:24 39.13249 -76.40094 19477 ft 405 kts 85°
2026-05-06 01:24 39.13671 -76.36493 20061 ft 410 kts 78°
2026-05-06 01:24 39.14591 -76.32987 20678 ft 415 kts 65°
2026-05-06 01:24 39.16011 -76.29783 21274 ft 418 kts 53°
2026-05-06 01:25 39.17766 -76.26772 21851 ft 422 kts 51°
2026-05-06 01:25 39.19577 -76.23778 22404 ft 426 kts 50°
2026-05-06 01:25 39.21422 -76.20751 22977 ft 430 kts 50°
2026-05-06 01:25 39.22672 -76.18692 23358 ft 433 kts 51°
2026-05-06 01:26 39.24524 -76.15620 23847 ft 436 kts 51°
2026-05-06 01:26 39.26381 -76.12513 24342 ft 437 kts 51°
2026-05-06 01:26 39.28217 -76.09420 24841 ft 439 kts 51°
2026-05-06 01:26 39.30082 -76.06265 25345 ft 441 kts 51°
2026-05-06 01:27 39.31945 -76.03105 25833 ft 443 kts 51°
2026-05-06 01:27 39.33814 -75.99928 26311 ft 445 kts 51°
2026-05-06 01:27 39.35690 -75.96735 26766 ft 447 kts 51°
2026-05-06 01:27 39.37574 -75.93527 27233 ft 449 kts 51°
2026-05-06 01:28 39.39443 -75.90340 27706 ft 451 kts 51°
2026-05-06 01:28 39.41364 -75.87062 28134 ft 453 kts 50°
2026-05-06 01:28 39.43274 -75.83800 28546 ft 456 kts 50°
2026-05-06 01:28 39.45192 -75.80520 28977 ft 458 kts 50°
2026-05-06 01:29 39.47118 -75.77223 29376 ft 460 kts 50°
2026-05-06 01:29 39.49032 -75.73946 29745 ft 463 kts 50°
2026-05-06 01:29 39.50983 -75.70600 30102 ft 465 kts 50°
2026-05-06 01:29 39.52936 -75.67247 30439 ft 467 kts 50°
2026-05-06 01:30 39.54900 -75.63870 30773 ft 468 kts 50°
2026-05-06 01:30 39.56865 -75.60490 31081 ft 470 kts 50°
2026-05-06 01:30 39.58834 -75.57099 31384 ft 472 kts 50°
2026-05-06 01:30 39.60788 -75.53730 31666 ft 474 kts 49°
2026-05-06 01:31 39.62783 -75.50286 31971 ft 476 kts 49°
2026-05-06 01:31 39.64768 -75.46855 32381 ft 474 kts 49°
2026-05-06 01:31 39.66746 -75.43431 32848 ft 471 kts 49°
2026-05-06 01:31 39.68704 -75.40038 33322 ft 468 kts 49°
2026-05-06 01:32 39.70647 -75.36668 33755 ft 466 kts 48°
2026-05-06 01:32 39.72586 -75.33302 34138 ft 464 kts 48°
2026-05-06 01:32 39.74493 -75.29989 34487 ft 462 kts 48°
2026-05-06 01:32 39.76416 -75.26646 34842 ft 460 kts 47°
2026-05-06 01:33 39.78324 -75.23325 35187 ft 458 kts 47°
2026-05-06 01:33 39.80230 -75.20003 35496 ft 457 kts 47°
2026-05-06 01:33 39.82134 -75.16684 35779 ft 457 kts 47°
2026-05-06 01:33 39.84038 -75.13360 36024 ft 458 kts 47°
2026-05-06 01:34 39.85950 -75.10019 36176 ft 460 kts 47°
2026-05-06 01:34 39.87868 -75.06667 36330 ft 463 kts 47°
2026-05-06 01:34 39.89781 -75.03313 36733 ft 458 kts 47°
2026-05-06 01:34 39.91653 -75.00025 36915 ft 460 kts 47°
2026-05-06 01:35 39.95494 -74.93282 36916 ft 463 kts 47°
2026-05-06 01:35 39.99317 -74.86547 36916 ft 459 kts 47°
2026-05-06 01:36 40.03082 -74.79900 36929 ft 457 kts 47°
2026-05-06 01:36 40.06847 -74.73242 36941 ft 454 kts 47°
2026-05-06 01:37 40.10600 -74.66593 36916 ft 454 kts 47°
2026-05-06 01:37 40.14350 -74.59931 36905 ft 455 kts 47°
2026-05-06 01:38 40.18086 -74.53283 36912 ft 457 kts 47°
2026-05-06 01:38 40.22250 -74.47118 36902 ft 446 kts 32°
2026-05-06 01:39 40.27114 -74.42018 36927 ft 447 kts 31°
2026-05-06 01:39 40.31973 -74.36948 36924 ft 451 kts 31°
2026-05-06 01:40 40.36857 -74.31748 36926 ft 453 kts 32°
2026-05-06 01:40 40.41746 -74.26497 36904 ft 454 kts 32°
2026-05-06 01:41 40.46644 -74.21226 36900 ft 455 kts 32°
2026-05-06 01:41 40.51533 -74.15960 36909 ft 455 kts 34°
2026-05-06 01:42 40.53759 -74.13020 36896 ft 464 kts 46°
2026-05-06 01:42 40.55571 -74.09479 36909 ft 471 kts 57°
2026-05-06 01:42 40.56900 -74.05531 36655 ft 479 kts 67°
2026-05-06 01:42 40.57888 -74.01318 36183 ft 481 kts 70°
2026-05-06 01:43 40.58790 -73.97088 35726 ft 476 kts 71°
2026-05-06 01:43 40.59682 -73.92921 35287 ft 471 kts 71°
2026-05-06 01:43 40.60598 -73.88799 34831 ft 467 kts 70°
2026-05-06 01:43 40.61521 -73.84783 34403 ft 464 kts 70°
2026-05-06 01:44 40.62467 -73.80711 33975 ft 461 kts 70°
2026-05-06 01:44 40.63636 -73.76819 33471 ft 454 kts 55°
2026-05-06 01:44 40.65529 -73.73568 33016 ft 444 kts 44°
2026-05-06 01:44 40.67620 -73.70579 32548 ft 441 kts 43°
2026-05-06 01:45 40.69710 -73.67627 32084 ft 439 kts 43°
2026-05-06 01:45 40.71766 -73.64703 31592 ft 438 kts 44°
2026-05-06 01:45 40.73825 -73.61736 31143 ft 436 kts 45°
2026-05-06 01:45 40.75867 -73.58761 30704 ft 435 kts 45°
2026-05-06 01:46 40.77867 -73.55829 30268 ft 433 kts 46°
2026-05-06 01:46 40.79875 -73.52875 29812 ft 432 kts 46°
2026-05-06 01:46 40.81883 -73.49919 29318 ft 430 kts 46°
2026-05-06 01:46 40.83877 -73.46985 28819 ft 428 kts 46°
2026-05-06 01:47 40.85843 -73.44091 28335 ft 426 kts 46°
2026-05-06 01:47 40.87820 -73.41179 27861 ft 425 kts 46°
2026-05-06 01:47 40.89794 -73.38270 27386 ft 423 kts 46°
2026-05-06 01:47 40.91758 -73.35371 26926 ft 421 kts 46°
2026-05-06 01:48 40.93708 -73.32490 26468 ft 419 kts 46°
2026-05-06 01:48 40.95646 -73.29622 26008 ft 418 kts 46°
2026-05-06 01:48 40.97561 -73.26785 25598 ft 416 kts 46°
2026-05-06 01:48 40.99484 -73.23932 25161 ft 414 kts 46°
2026-05-06 01:49 41.01402 -73.21084 24736 ft 412 kts 46°
2026-05-06 01:49 41.03306 -73.18253 24323 ft 411 kts 46°
2026-05-06 01:49 41.05204 -73.15430 23900 ft 409 kts 46°
2026-05-06 01:49 41.07097 -73.12610 23491 ft 408 kts 46°
2026-05-06 01:50 41.08982 -73.09799 23014 ft 406 kts 46°
2026-05-06 01:50 41.10843 -73.07021 22931 ft 398 kts 46°
2026-05-06 01:50 41.12674 -73.04287 22944 ft 408 kts 46°
2026-05-06 01:50 41.14599 -73.01411 22951 ft 425 kts 47°
2026-05-06 01:51 41.16237 -72.98959 22930 ft 431 kts 47°
2026-05-06 01:51 41.18229 -72.95974 22928 ft 431 kts 47°
2026-05-06 01:51 41.20372 -72.92761 22916 ft 428 kts 47°
2026-05-06 01:51 41.21994 -72.89819 22914 ft 425 kts 60°
2026-05-06 01:52 41.23350 -72.86398 22927 ft 422 kts 63°
2026-05-06 01:52 41.24644 -72.82894 22923 ft 421 kts 64°
2026-05-06 01:52 41.25921 -72.79387 22925 ft 421 kts 64°
2026-05-06 01:52 41.27212 -72.75873 22931 ft 422 kts 63°
2026-05-06 01:53 41.28503 -72.72408 22933 ft 424 kts 63°
2026-05-06 01:53 41.29815 -72.68922 22930 ft 414 kts 63°
2026-05-06 01:53 41.31098 -72.65539 22945 ft 403 kts 63°
2026-05-06 01:53 41.32342 -72.62265 22950 ft 400 kts 63°
2026-05-06 01:54 41.33599 -72.58961 22951 ft 400 kts 62°
2026-05-06 01:54 41.34851 -72.55667 22955 ft 398 kts 62°
2026-05-06 01:54 41.36104 -72.52364 22950 ft 398 kts 62°
2026-05-06 01:54 41.37356 -72.49059 22575 ft 402 kts 62°
2026-05-06 01:55 41.38612 -72.45737 22177 ft 399 kts 62°
2026-05-06 01:55 41.39856 -72.42443 21789 ft 397 kts 63°
2026-05-06 01:55 41.41079 -72.39200 21412 ft 396 kts 63°
2026-05-06 01:55 41.42313 -72.35924 21038 ft 395 kts 63°
2026-05-06 01:56 41.43533 -72.32682 20954 ft 386 kts 63°
2026-05-06 01:56 41.44731 -72.29493 20948 ft 385 kts 63°
2026-05-06 01:56 41.45936 -72.26288 20947 ft 389 kts 63°
2026-05-06 01:56 41.47154 -72.23044 20938 ft 389 kts 62°
2026-05-06 01:57 41.48337 -72.19880 20826 ft 381 kts 63°
2026-05-06 01:57 41.49515 -72.16684 20342 ft 384 kts 63°
2026-05-06 01:57 41.50686 -72.13478 19902 ft 384 kts 63°
2026-05-06 01:57 41.51855 -72.10270 19482 ft 383 kts 63°
2026-05-06 01:58 41.53023 -72.07067 19060 ft 383 kts 63°
2026-05-06 01:58 41.54178 -72.03901 18645 ft 382 kts 63°
2026-05-06 01:58 41.55342 -72.00711 18226 ft 382 kts 64°
2026-05-06 01:58 41.56434 -71.97467 17760 ft 382 kts 68°
2026-05-06 01:59 41.57405 -71.94171 17290 ft 381 kts 69°
2026-05-06 01:59 41.58363 -71.90867 16808 ft 380 kts 69°
2026-05-06 01:59 41.59331 -71.87584 16361 ft 379 kts 69°
2026-05-06 01:59 41.60302 -71.84308 15906 ft 378 kts 68°
2026-05-06 02:00 41.61257 -71.81083 15468 ft 377 kts 68°
2026-05-06 02:00 41.62220 -71.77825 15020 ft 376 kts 68°
2026-05-06 02:00 41.63179 -71.74574 14594 ft 375 kts 69°
2026-05-06 02:00 41.64133 -71.71334 14179 ft 373 kts 68°
2026-05-06 02:01 41.65080 -71.68110 13754 ft 372 kts 68°
2026-05-06 02:01 41.66029 -71.64880 13286 ft 371 kts 69°
2026-05-06 02:01 41.66960 -71.61711 12819 ft 369 kts 69°
2026-05-06 02:01 41.67896 -71.58520 12367 ft 367 kts 69°
2026-05-06 02:02 41.68828 -71.55335 11900 ft 366 kts 69°
2026-05-06 02:02 41.69755 -71.52164 11457 ft 364 kts 69°
2026-05-06 02:02 41.70674 -71.49018 11113 ft 360 kts 69°
2026-05-06 02:02 41.71569 -71.45955 11068 ft 346 kts 69°
2026-05-06 02:03 41.72434 -71.43021 11048 ft 332 kts 67°
2026-05-06 02:03 41.73468 -71.40319 11058 ft 323 kts 59°
2026-05-06 02:03 41.74624 -71.37739 11070 ft 324 kts 58°
2026-05-06 02:03 41.75789 -71.35142 11074 ft 325 kts 59°
2026-05-06 02:04 41.76919 -71.32553 11074 ft 327 kts 59°
2026-05-06 02:04 41.78070 -71.29876 11068 ft 327 kts 59°
2026-05-06 02:04 41.79189 -71.27253 11062 ft 328 kts 60°
2026-05-06 02:04 41.80328 -71.24579 11063 ft 328 kts 60°
2026-05-06 02:05 41.81444 -71.21955 11064 ft 327 kts 60°
2026-05-06 02:05 41.82570 -71.19306 11066 ft 327 kts 60°
2026-05-06 02:05 41.83689 -71.16674 11057 ft 321 kts 60°
2026-05-06 02:05 41.84773 -71.14122 11051 ft 308 kts 60°
2026-05-06 02:06 41.85810 -71.11683 11091 ft 293 kts 60°
2026-05-06 02:06 41.86837 -71.09303 10778 ft 299 kts 59°
2026-05-06 02:06 41.87889 -71.06878 10344 ft 300 kts 59°
2026-05-06 02:06 41.88937 -71.04461 9918 ft 299 kts 59°
2026-05-06 02:07 41.89979 -71.02050 9449 ft 298 kts 59°
2026-05-06 02:07 41.91016 -70.99651 8989 ft 297 kts 59°
2026-05-06 02:07 41.92037 -70.97282 8536 ft 296 kts 59°
2026-05-06 02:07 41.93067 -70.94890 8129 ft 292 kts 59°
2026-05-06 02:08 41.94063 -70.92574 8076 ft 282 kts 59°
2026-05-06 02:08 41.95038 -70.90304 8075 ft 281 kts 59°
2026-05-06 02:08 41.96020 -70.88016 8077 ft 283 kts 59°
2026-05-06 02:08 41.97003 -70.85726 8077 ft 282 kts 59°
2026-05-06 02:09 41.97969 -70.83474 8071 ft 282 kts 59°
2026-05-06 02:09 41.98951 -70.81183 8072 ft 281 kts 59°
2026-05-06 02:09 41.99929 -70.78901 8091 ft 281 kts 59°
2026-05-06 02:09 42.00905 -70.76629 8086 ft 281 kts 58°
2026-05-06 02:10 42.02075 -70.74522 8049 ft 280 kts 46°
2026-05-06 02:10 42.03400 -70.72598 8052 ft 280 kts 44°
2026-05-06 02:10 42.04727 -70.70707 8046 ft 281 kts 44°
2026-05-06 02:10 42.06059 -70.68768 8052 ft 282 kts 45°
2026-05-06 02:11 42.07377 -70.66817 8047 ft 282 kts 45°
2026-05-06 02:11 42.08694 -70.64849 8047 ft 283 kts 46°
2026-05-06 02:11 42.10014 -70.62882 8040 ft 282 kts 43°
2026-05-06 02:11 42.11619 -70.61405 7681 ft 279 kts 13°
2026-05-06 02:12 42.13481 -70.60798 7348 ft 273 kts
2026-05-06 02:12 42.15338 -70.60302 6976 ft 270 kts
2026-05-06 02:12 42.17151 -70.59821 6633 ft 267 kts
2026-05-06 02:12 42.18968 -70.59331 6232 ft 264 kts
2026-05-06 02:13 42.20762 -70.58844 5858 ft 261 kts
2026-05-06 02:13 42.22535 -70.58356 5483 ft 260 kts
2026-05-06 02:13 42.24307 -70.57865 5113 ft 260 kts
2026-05-06 02:13 42.26072 -70.57373 5036 ft 261 kts
2026-05-06 02:14 42.27857 -70.56877 5014 ft 262 kts
2026-05-06 02:14 42.29617 -70.56385 5008 ft 260 kts
2026-05-06 02:14 42.31391 -70.55952 4979 ft 255 kts 354°
2026-05-06 02:14 42.33029 -70.56446 5015 ft 234 kts 322°
2026-05-06 02:15 42.34326 -70.57708 5010 ft 228 kts 309°
2026-05-06 02:15 42.35472 -70.59188 5008 ft 228 kts 307°
2026-05-06 02:15 42.36584 -70.60682 5017 ft 227 kts 306°
2026-05-06 02:16 42.38509 -70.63261 4987 ft 222 kts 306°
2026-05-06 02:16 42.39997 -70.65246 4996 ft 224 kts 307°
2026-05-06 02:16 42.41112 -70.66726 5002 ft 225 kts 307°
2026-05-06 02:16 42.41873 -70.67734 5000 ft 226 kts 307°
2026-05-06 02:17 42.43000 -70.69225 4998 ft 227 kts 307°
2026-05-06 02:17 42.44113 -70.70693 4997 ft 227 kts 307°
2026-05-06 02:17 42.45245 -70.72186 4992 ft 227 kts 307°
2026-05-06 02:17 42.46370 -70.73669 4990 ft 226 kts 307°
2026-05-06 02:18 42.47489 -70.75142 4990 ft 221 kts 307°
2026-05-06 02:18 42.48557 -70.76544 4954 ft 206 kts 306°
2026-05-06 02:18 42.49565 -70.77873 4705 ft 199 kts 306°
2026-05-06 02:18 42.50538 -70.79158 4437 ft 192 kts 305°
2026-05-06 02:19 42.51481 -70.80405 4178 ft 186 kts 305°
2026-05-06 02:19 42.52522 -70.81466 3890 ft 197 kts 329°
2026-05-06 02:19 42.53945 -70.81483 3655 ft 217 kts
2026-05-06 02:19 42.55390 -70.80801 3456 ft 222 kts 12°
2026-05-06 02:20 42.58282 -70.79353 3042 ft 224 kts 11°
2026-05-06 02:20 42.59759 -70.78703 3013 ft 219 kts
2026-05-06 02:20 42.61200 -70.78818 3000 ft 197 kts 328°
2026-05-06 02:21 42.62259 -70.79748 2992 ft 172 kts 297°
2026-05-06 02:21 42.62699 -70.81142 2997 ft 157 kts 266°
2026-05-06 02:21 42.62440 -70.82540 3003 ft 154 kts 237°
2026-05-06 02:21 42.61820 -70.83736 2999 ft 156 kts 236°
2026-05-06 02:22 42.61186 -70.84946 3010 ft 157 kts 236°
2026-05-06 02:22 42.60546 -70.86126 2998 ft 156 kts 235°
2026-05-06 02:22 42.59909 -70.87297 2989 ft 152 kts 235°
2026-05-06 02:22 42.59305 -70.88435 2981 ft 145 kts 235°
2026-05-06 02:23 42.58646 -70.89475 2981 ft 151 kts 214°
2026-05-06 02:23 42.57651 -70.90041 2997 ft 159 kts 208°
2026-05-06 02:23 42.56628 -70.90614 3008 ft 159 kts 208°
2026-05-06 02:23 42.55588 -70.91178 3015 ft 162 kts 209°
2026-05-06 02:24 42.54571 -70.91717 2981 ft 150 kts 208°
2026-05-06 02:24 42.53639 -70.92188 2981 ft 141 kts 208°
2026-05-06 02:24 42.52761 -70.92621 2983 ft 128 kts 208°
2026-05-06 02:24 42.51931 -70.93024 2976 ft 127 kts 207°
2026-05-06 02:25 42.51093 -70.93435 2819 ft 126 kts 207°
2026-05-06 02:25 42.50281 -70.93826 2670 ft 121 kts 208°
2026-05-06 02:25 42.49488 -70.94212 2520 ft 123 kts 207°
2026-05-06 02:25 42.48688 -70.94600 2385 ft 118 kts 206°
2026-05-06 02:26 42.47925 -70.94969 2204 ft 116 kts 207°
2026-05-06 02:26 42.47164 -70.95338 2054 ft 117 kts 207°
2026-05-06 02:26 42.46405 -70.95706 1909 ft 113 kts 207°
2026-05-06 02:26 42.45676 -70.96059 1758 ft 110 kts 207°
2026-05-06 02:27 42.44946 -70.96414 1619 ft 114 kts 207°
2026-05-06 02:27 42.44194 -70.96779 1464 ft 116 kts 206°
2026-05-06 02:27 42.43407 -70.97160 1312 ft 123 kts 204°
2026-05-06 02:27 42.42598 -70.97550 1139 ft 124 kts 204°
2026-05-06 02:28 42.41773 -70.97914 980 ft 129 kts 202°
2026-05-06 02:28 42.40909 -70.98357 769 ft 135 kts 202°
2026-05-06 02:28 42.40031 -70.98808 621 ft 133 kts 200°
2026-05-06 02:28 42.39175 -70.99186 439 ft 128 kts 198°
2026-05-06 02:29 42.38332 -70.99646 248 ft 132 kts 198°
2026-05-06 02:29 42.37449 -71.00045 68 ft 134 kts 201°
2026-05-06 02:29 42.36626 -71.00438 28 ft 105 kts 201°
2026-05-06 02:29 42.36145 -71.00682 27 ft 46 kts 200°
2026-05-06 02:30 42.35954 -71.00856 26 ft 30 kts 229°
2026-05-06 02:30 42.35839 -71.01068 24 ft 27 kts 254°
2026-05-06 02:30 42.35842 -71.01215 24 ft 15 kts 277°
2026-05-06 02:30 42.35856 -71.01355 26 ft 16 kts 279°
2026-05-06 02:31 42.35879 -71.01525 27 ft 19 kts 281°
2026-05-06 02:31 42.35905 -71.01716 28 ft 21 kts 283°
2026-05-06 02:31 42.35955 -71.01901 24 ft 21 kts 299°
2026-05-06 02:31 42.36028 -71.02068 26 ft 20 kts 300°
2026-05-06 02:32 42.36092 -71.02139 26 ft 9 kts 19°
2026-05-06 02:32 42.36127 -71.02116 24 ft 0 kts 26°